DW3371 Weather Reports


time (UTC)temp
C
wind
direction
speed
KPH
gust
KPH
rain 1hr
cm
rain 24hr
cm
rain mn
cm
humidity
%
barometer
mb
20260506160253 13 26 12.9 25.7 0.00 0.00 0.00 70 1012.0
20260506153240 12 0 11.3 25.7 0.00 0.00 0.00 71 1012.1
20260506150246 12 63 12.9 22.5 0.00 0.00 0.00 66 1012.0
20260506143241 12 57 11.3 22.5 0.00 0.00 0.00 62 1011.8
20260506140248 13 9 12.9 33.8 0.00 0.00 0.00 65 1011.7
20260506133240 13 331 12.9 27.4 0.00 0.00 0.00 59 1011.9
20260506123243 13 20 11.3 27.4 0.00 0.00 0.00 57 1011.8
20260506120240 13 53 14.5 29.0 0.00 0.00 0.00 61 1011.8
20260506113242 12 47 12.9 27.4 0.00 0.00 0.00 66 1012.0
20260506110241 11 9 11.3 29.0 0.00 0.00 0.00 71 1012.1
20260506103250 11 28 11.3 29.0 0.00 0.00 0.00 77 1012.0
20260506100241 10 55 14.5 29.0 0.00 0.00 0.00 80 1012.0
20260506093248 10 51 14.5 29.0 0.00 0.00 0.00 79 1012.0
20260506090240 10 9 14.5 25.7 0.00 0.00 0.00 76 1011.8
20260506083245 10 0 14.5 27.4 0.00 0.00 0.00 78 1011.8
20260506080244 8 50 12.9 27.4 0.00 0.00 0.00 81 1011.9
20260506073241 8 0 16.1 37.0 0.00 0.00 0.00 78 1011.8
20260506070240 8 9 14.5 30.6 0.00 0.00 0.00 80 1011.3
20260506060239 6 0 12.9 29.0 0.00 0.00 0.00 85 1011.2
20260506050241 5 0 11.3 20.9 0.00 0.00 0.00 86 1011.3
20260506043234 5 0 9.7 20.9 0.00 0.00 0.00 86 1011.4
20260506033235 6 0 9.7 20.9 0.00 0.00 0.00 84 1011.8
20260506030234 6 350 12.9 24.1 0.00 0.00 0.00 84 1011.7
20260506023234 6 350 12.9 20.9 0.00 0.00 0.00 82 1011.9
20260506020235 7 0 11.3 20.9 0.00 0.00 0.00 81 1011.9
20260506013233 8 0 11.3 24.1 0.00 0.00 0.00 79 1012.0
20260506010234 8 35 12.9 25.7 0.00 0.00 0.00 78 1012.0
20260506003234 8 348 11.3 20.9 0.00 0.00 0.00 77 1012.2
20260506000234 9 0 11.3 24.1 0.00 0.00 0.00 77 1012.2
20260505233234 9 19 11.3 19.3 0.00 0.00 0.00 76 1012.4
20260505230235 10 16 8.0 20.9 0.00 0.00 0.00 76 1012.5
20260505223234 10 26 9.7 22.5 0.00 0.00 0.00 77 1012.6
20260505220240 10 64 9.7 24.1 0.00 0.00 0.00 74 1012.5
20260505210240 11 45 9.7 24.1 0.00 0.00 0.00 77 1012.4
20260505203233 11 23 9.7 22.5 0.00 0.00 0.00 77 1012.3
20260505193241 11 40 11.3 29.0 0.00 0.00 0.00 75 1011.7
20260505190233 12 52 12.9 30.6 0.00 0.00 0.00 73 1011.4
20260505183256 12 25 16.1 37.0 0.00 0.00 0.00 71 1011.3
20260505180234 13 355 16.1 33.8 0.00 0.00 0.00 67 1011.0
20260505173233 14 56 14.5 27.4 0.00 0.00 0.00 65 1010.9
20260505170233 15 42 14.5 29.0 0.00 0.00 0.00 62 1010.8
20260505163239 16 69 11.3 27.4 0.00 0.00 0.00 62 1010.8